WUK79 LRBC-EGGW

Flight info

Callsign WUK79
Flight time N/A
Altitude 34000
Route REDKU DCT MIKVI DCT ABULI DCT RAPET DCT MASEK DCT TIVUN DCT TORNU DCT BATAK DCT NOGRO M40 RINIS
Aircraft A21N/M-SDE1E2E3FGIJ1J4RWXY/LB1

Departure

Time 2026-04-14 18:36
Airport Bacău George Enescu International Airport (LRBC)

Arrival

Time N/A
Airport London Luton Airport (EGGW)
Time Latitude Longitude Altitude Speed Heading
2026-04-14 17:57 46.53196 26.90974 620 ft 0 kts 74°
2026-04-14 18:27 46.53191 26.90949 632 ft 4 kts 69°
2026-04-14 18:27 46.53179 26.90914 630 ft 4 kts 56°
2026-04-14 18:27 46.53162 26.90887 629 ft 4 kts 25°
2026-04-14 18:27 46.53146 26.90883 628 ft 0 kts 345°
2026-04-14 18:32 46.53164 26.90876 631 ft 5 kts 345°
2026-04-14 18:32 46.53208 26.90859 624 ft 7 kts 345°
2026-04-14 18:33 46.53264 26.90838 627 ft 9 kts 345°
2026-04-14 18:33 46.53299 26.90776 620 ft 5 kts 257°
2026-04-14 18:33 46.53299 26.90774 620 ft 0 kts 254°
2026-04-14 18:34 46.53297 26.90764 620 ft 3 kts 254°
2026-04-14 18:34 46.53285 26.90705 627 ft 9 kts 254°
2026-04-14 18:35 46.53267 26.90615 629 ft 8 kts 225°
2026-04-14 18:35 46.53203 26.90618 625 ft 16 kts 165°
2026-04-14 18:35 46.52901 26.90734 620 ft 81 kts 164°
2026-04-14 18:35 46.52124 26.91044 622 ft 146 kts 164°
2026-04-14 18:36 46.51101 26.91461 1067 ft 154 kts 163°
2026-04-14 18:36 46.50064 26.91866 1745 ft 155 kts 165°
2026-04-14 18:36 46.48975 26.92271 2264 ft 169 kts 165°
2026-04-14 18:36 46.47786 26.92736 2787 ft 185 kts 165°
2026-04-14 18:37 46.46487 26.93243 3309 ft 202 kts 165°
2026-04-14 18:37 46.45055 26.93799 3771 ft 223 kts 165°
2026-04-14 18:37 46.43523 26.94397 4456 ft 232 kts 165°
2026-04-14 18:37 46.41937 26.95004 5241 ft 239 kts 169°
2026-04-14 18:38 46.40259 26.94980 5918 ft 247 kts 196°
2026-04-14 18:38 46.38722 26.93822 6564 ft 254 kts 224°
2026-04-14 18:38 46.37694 26.91766 7283 ft 254 kts 251°
2026-04-14 18:38 46.37403 26.89277 8049 ft 251 kts 277°
2026-04-14 18:39 46.37886 26.86877 8822 ft 250 kts 301°
2026-04-14 18:39 46.39030 26.85017 9604 ft 250 kts 325°
2026-04-14 18:39 46.40504 26.83562 10093 ft 265 kts 314°
2026-04-14 18:39 46.41425 26.81213 10495 ft 280 kts 285°
2026-04-14 18:40 46.41751 26.78326 10838 ft 300 kts 278°
2026-04-14 18:40 46.42021 26.75245 11256 ft 314 kts 279°
2026-04-14 18:40 46.42346 26.72082 11895 ft 320 kts 281°
2026-04-14 18:40 46.42715 26.68889 12643 ft 323 kts 281°
2026-04-14 18:41 46.43105 26.65713 13385 ft 326 kts 282°
2026-04-14 18:41 46.43522 26.62471 14120 ft 329 kts 282°
2026-04-14 18:41 46.43947 26.59195 14788 ft 332 kts 282°
2026-04-14 18:41 46.44376 26.55886 15445 ft 336 kts 282°
2026-04-14 18:42 46.44808 26.52536 16112 ft 339 kts 282°
2026-04-14 18:42 46.45241 26.49155 16785 ft 343 kts 282°
2026-04-14 18:42 46.45678 26.45738 17450 ft 347 kts 282°
2026-04-14 18:42 46.46119 26.42284 18108 ft 350 kts 282°
2026-04-14 18:43 46.46563 26.38796 18728 ft 353 kts 282°
2026-04-14 18:43 46.47007 26.35277 19287 ft 356 kts 282°
2026-04-14 18:43 46.47455 26.31724 19839 ft 359 kts 282°
2026-04-14 18:43 46.47906 26.28145 20380 ft 362 kts 282°
2026-04-14 18:44 46.48362 26.24533 20932 ft 366 kts 282°
2026-04-14 18:44 46.48822 26.20884 21435 ft 369 kts 281°
2026-04-14 18:44 46.49284 26.17199 21958 ft 373 kts 281°
2026-04-14 18:44 46.49812 26.13505 22479 ft 375 kts 287°
2026-04-14 18:45 46.50815 26.10006 22992 ft 378 kts 298°
2026-04-14 18:45 46.52105 26.06663 23505 ft 381 kts 300°
2026-04-14 18:45 46.53437 26.03320 23976 ft 384 kts 300°
2026-04-14 18:45 46.54771 25.99948 24391 ft 387 kts 300°
2026-04-14 18:46 46.56108 25.96540 24811 ft 389 kts 300°
2026-04-14 18:46 46.57447 25.93105 25222 ft 392 kts 300°
2026-04-14 18:46 46.58790 25.89644 25611 ft 395 kts 299°
2026-04-14 18:46 46.60142 25.86152 26001 ft 397 kts 299°
2026-04-14 18:47 46.61499 25.82634 26393 ft 400 kts 299°
2026-04-14 18:47 46.62864 25.79089 26776 ft 403 kts 299°
2026-04-14 18:47 46.64237 25.75525 27145 ft 405 kts 299°
2026-04-14 18:47 46.65624 25.71934 27515 ft 408 kts 299°
2026-04-14 18:48 46.67016 25.68324 27876 ft 410 kts 299°
2026-04-14 18:48 46.68416 25.64686 28229 ft 413 kts 299°
2026-04-14 18:48 46.69819 25.61023 28584 ft 415 kts 299°
2026-04-14 18:48 46.71215 25.57323 28923 ft 418 kts 299°
2026-04-14 18:49 46.72620 25.53604 29275 ft 420 kts 299°
2026-04-14 18:49 46.74038 25.49871 29590 ft 422 kts 299°
2026-04-14 18:49 46.75466 25.46116 29897 ft 424 kts 299°
2026-04-14 18:49 46.76901 25.42354 30249 ft 426 kts 299°
2026-04-14 18:50 46.78346 25.38573 30516 ft 428 kts 299°
2026-04-14 18:50 46.79805 25.34770 30763 ft 430 kts 299°
2026-04-14 18:50 46.81271 25.30957 30987 ft 432 kts 299°
2026-04-14 18:50 46.82739 25.27111 31228 ft 435 kts 299°
2026-04-14 18:51 46.84205 25.23246 31479 ft 436 kts 298°
2026-04-14 18:51 46.85672 25.19366 31734 ft 437 kts 298°
2026-04-14 18:51 46.87140 25.15478 32035 ft 437 kts 298°
2026-04-14 18:51 46.88605 25.11588 32332 ft 437 kts 298°
2026-04-14 18:52 46.90068 25.07702 32632 ft 436 kts 298°
2026-04-14 18:52 46.91528 25.03810 32905 ft 436 kts 298°
2026-04-14 18:52 46.92985 24.99921 33168 ft 437 kts 298°
2026-04-14 18:52 46.94443 24.96020 33419 ft 437 kts 298°
2026-04-14 18:53 46.95902 24.92120 33678 ft 437 kts 298°
2026-04-14 18:53 46.97361 24.88219 33942 ft 437 kts 298°
2026-04-14 18:53 46.98817 24.84318 34177 ft 437 kts 297°
2026-04-14 18:53 47.00269 24.80421 34249 ft 436 kts 297°
2026-04-14 18:54 47.03145 24.72680 34236 ft 435 kts 297°
2026-04-14 18:54 47.06035 24.64883 34214 ft 435 kts 297°
2026-04-14 18:55 47.08920 24.57073 34207 ft 435 kts 297°
2026-04-14 18:55 47.11798 24.49263 34204 ft 435 kts 297°
2026-04-14 18:56 47.14670 24.41435 34205 ft 435 kts 297°
2026-04-14 18:56 47.17536 24.33590 34201 ft 436 kts 297°
2026-04-14 18:57 47.20404 24.25737 34199 ft 436 kts 297°
2026-04-14 18:57 47.23268 24.17878 34198 ft 436 kts 297°
2026-04-14 18:58 47.26121 24.10012 34196 ft 436 kts 297°
2026-04-14 18:58 47.28935 24.02115 34192 ft 436 kts 297°
2026-04-14 18:59 47.31785 23.94234 34195 ft 436 kts 297°
2026-04-14 18:59 47.34650 23.86368 34197 ft 436 kts 297°
2026-04-14 19:00 47.37482 23.78467 34196 ft 436 kts 297°
2026-04-14 19:00 47.40306 23.70559 34183 ft 436 kts 296°
2026-04-14 19:01 47.43115 23.62641 34172 ft 436 kts 296°
2026-04-14 19:01 47.45938 23.54718 34170 ft 436 kts 296°
2026-04-14 19:02 47.48739 23.46781 34172 ft 435 kts 296°
2026-04-14 19:02 47.51552 23.38852 34165 ft 435 kts 296°
2026-04-14 19:03 47.54361 23.30915 34163 ft 435 kts 296°
2026-04-14 19:03 47.57155 23.22970 34163 ft 435 kts 296°
2026-04-14 19:04 47.59937 23.15016 34148 ft 435 kts 296°
2026-04-14 19:04 47.62717 23.07058 34144 ft 435 kts 296°
2026-04-14 19:05 47.65489 22.99096 34141 ft 435 kts 296°
2026-04-14 19:05 47.68259 22.91124 34141 ft 435 kts 296°
2026-04-14 19:06 47.71021 22.83149 34144 ft 434 kts 296°
2026-04-14 19:06 47.73765 22.75166 34141 ft 434 kts 295°
2026-04-14 19:07 47.76482 22.67228 34143 ft 434 kts 295°
2026-04-14 19:07 47.79208 22.59235 34142 ft 434 kts 295°
2026-04-14 19:08 47.81937 22.51238 34145 ft 434 kts 295°
2026-04-14 19:08 47.84677 22.43245 34141 ft 433 kts 295°
2026-04-14 19:09 47.87405 22.35254 34141 ft 433 kts 295°
2026-04-14 19:09 47.90115 22.27241 34143 ft 433 kts 295°
2026-04-14 19:10 47.92384 22.20521 34145 ft 433 kts 295°
2026-04-14 19:10 47.95084 22.12505 34152 ft 432 kts 295°
2026-04-14 19:11 47.97763 22.04503 34153 ft 431 kts 295°
2026-04-14 19:11 48.00438 21.96496 34159 ft 431 kts 295°
2026-04-14 19:12 48.03119 21.88488 34166 ft 431 kts 295°
2026-04-14 19:13 48.07117 21.76455 34173 ft 430 kts 295°
2026-04-14 19:13 48.09763 21.68461 34167 ft 429 kts 295°
2026-04-14 19:14 48.12396 21.60462 34164 ft 429 kts 295°
2026-04-14 19:14 48.15031 21.52445 34145 ft 430 kts 295°
2026-04-14 19:15 48.17667 21.44405 34148 ft 430 kts 295°
2026-04-14 19:15 48.20299 21.36354 34148 ft 430 kts 294°
2026-04-14 19:16 48.22907 21.28346 34150 ft 430 kts 294°
2026-04-14 19:16 48.25523 21.20275 34151 ft 430 kts 294°
2026-04-14 19:17 48.28134 21.12200 34153 ft 430 kts 294°
2026-04-14 19:17 48.30744 21.04116 34161 ft 430 kts 294°
2026-04-14 19:18 48.33334 20.96058 34158 ft 428 kts 294°
2026-04-14 19:18 48.35915 20.87997 34161 ft 428 kts 294°
2026-04-14 19:19 48.38500 20.79930 34159 ft 428 kts 294°
2026-04-14 19:19 48.41067 20.71848 34165 ft 428 kts 294°
2026-04-14 19:20 48.43630 20.63774 34168 ft 426 kts 294°
2026-04-14 19:20 48.46182 20.55721 34172 ft 426 kts 294°
2026-04-14 19:21 48.48666 20.47625 34172 ft 425 kts 290°
2026-04-14 19:21 48.50777 20.39301 34181 ft 425 kts 289°
2026-04-14 19:22 48.52860 20.30953 34180 ft 425 kts 289°
2026-04-14 19:22 48.54944 20.22615 34186 ft 424 kts 289°
2026-04-14 19:23 48.57020 20.14278 34192 ft 424 kts 289°
2026-04-14 19:23 48.59090 20.05938 34193 ft 424 kts 289°
2026-04-14 19:24 48.61155 19.97586 34198 ft 424 kts 289°
2026-04-14 19:24 48.63215 19.89232 34205 ft 423 kts 289°
2026-04-14 19:25 48.65258 19.80931 34204 ft 421 kts 289°
2026-04-14 19:25 48.67293 19.72629 34204 ft 421 kts 289°
2026-04-14 19:26 48.69319 19.64316 34205 ft 421 kts 289°
2026-04-14 19:26 48.71342 19.56001 34204 ft 421 kts 289°
2026-04-14 19:27 48.73355 19.47688 34208 ft 419 kts 289°
2026-04-14 19:27 48.75360 19.39392 34205 ft 419 kts 288°
2026-04-14 19:28 48.77356 19.31085 34206 ft 419 kts 288°
2026-04-14 19:28 48.79328 19.22830 34256 ft 419 kts 288°
2026-04-14 19:28 48.80321 19.18669 34415 ft 420 kts 288°
2026-04-14 19:29 48.81315 19.14499 34619 ft 420 kts 288°
2026-04-14 19:29 48.82308 19.10326 34813 ft 421 kts 288°
2026-04-14 19:29 48.83299 19.06150 34972 ft 421 kts 288°
2026-04-14 19:29 48.84290 19.01961 35144 ft 422 kts 288°
2026-04-14 19:30 48.85281 18.97768 35324 ft 422 kts 288°
2026-04-14 19:30 48.86272 18.93566 35475 ft 423 kts 288°
2026-04-14 19:30 48.87267 18.89354 35619 ft 424 kts 288°
2026-04-14 19:30 48.88262 18.85127 35752 ft 425 kts 288°
2026-04-14 19:31 48.89257 18.80892 35884 ft 426 kts 288°
2026-04-14 19:31 48.90252 18.76637 36011 ft 427 kts 288°
2026-04-14 19:31 48.91241 18.72375 36138 ft 428 kts 288°
2026-04-14 19:32 48.93235 18.63821 36239 ft 430 kts 288°
2026-04-14 19:32 48.95226 18.55241 36218 ft 430 kts 288°
2026-04-14 19:33 48.97210 18.46664 36216 ft 430 kts 288°
2026-04-14 19:33 48.99184 18.38078 36219 ft 430 kts 288°
2026-04-14 19:34 49.02131 18.25196 36221 ft 429 kts 288°
2026-04-14 19:34 49.04085 18.16606 36210 ft 429 kts 288°
2026-04-14 19:35 49.06042 18.08023 36208 ft 429 kts 287°
2026-04-14 19:35 49.07972 17.99419 36213 ft 429 kts 287°
2026-04-14 19:36 49.09913 17.90816 36192 ft 429 kts 287°
2026-04-14 19:36 49.11848 17.82197 36203 ft 429 kts 287°
2026-04-14 19:37 49.13784 17.73570 36208 ft 429 kts 287°
2026-04-14 19:37 49.15696 17.64937 36204 ft 429 kts 287°
2026-04-14 19:38 49.17608 17.56291 36202 ft 429 kts 287°
2026-04-14 19:38 49.19508 17.47706 36202 ft 429 kts 287°
2026-04-14 19:39 49.21405 17.39062 36197 ft 429 kts 287°
2026-04-14 19:39 49.23288 17.30407 36210 ft 429 kts 287°
2026-04-14 19:40 49.25177 17.21756 36198 ft 429 kts 287°
2026-04-14 19:40 49.27086 17.13113 36191 ft 429 kts 287°
2026-04-14 19:41 49.28967 17.04448 36202 ft 429 kts 287°
2026-04-14 19:41 49.30835 16.95763 36193 ft 429 kts 287°
2026-04-14 19:42 49.32694 16.87070 36204 ft 429 kts 287°
2026-04-14 19:42 49.34546 16.78375 36188 ft 429 kts 287°
2026-04-14 19:43 49.36395 16.69676 36202 ft 429 kts 287°
2026-04-14 19:43 49.38239 16.60957 36191 ft 430 kts 286°
2026-04-14 19:44 49.40076 16.52237 36195 ft 429 kts 286°
2026-04-14 19:44 49.41905 16.43507 36197 ft 429 kts 286°
2026-04-14 19:45 49.43730 16.34769 36201 ft 430 kts 286°
2026-04-14 19:45 49.45546 16.26025 36202 ft 429 kts 286°
2026-04-14 19:46 49.47353 16.17277 36201 ft 429 kts 286°
2026-04-14 19:46 49.49153 16.08531 36207 ft 429 kts 286°
2026-04-14 19:47 49.50950 15.99781 36209 ft 429 kts 286°
2026-04-14 19:47 49.52738 15.91019 36204 ft 429 kts 286°
2026-04-14 19:48 49.54524 15.82254 36210 ft 429 kts 286°
2026-04-14 19:48 49.56284 15.73557 36208 ft 428 kts 285°
2026-04-14 19:49 49.58057 15.64748 36209 ft 428 kts 285°
2026-04-14 19:49 49.59814 15.55988 36214 ft 427 kts 285°
2026-04-14 19:50 49.61547 15.47314 36215 ft 426 kts 285°
2026-04-14 19:50 49.63285 15.38576 36212 ft 426 kts 285°
2026-04-14 19:51 49.65009 15.29846 36209 ft 425 kts 285°
2026-04-14 19:51 49.66732 15.21114 36211 ft 425 kts 285°
2026-04-14 19:52 49.68457 15.12310 36209 ft 425 kts 285°
2026-04-14 19:52 49.70164 15.03560 36213 ft 425 kts 285°
2026-04-14 19:53 49.71866 14.94799 36211 ft 426 kts 285°
2026-04-14 19:53 49.73281 14.87506 36209 ft 426 kts 285°
2026-04-14 19:54 49.75816 14.74330 36212 ft 426 kts 285°
2026-04-14 19:55 49.77497 14.65537 36211 ft 426 kts 285°
2026-04-14 19:55 49.79174 14.56739 36215 ft 426 kts 286°
2026-04-14 19:56 49.80845 14.47932 36215 ft 427 kts 285°
2026-04-14 19:56 49.82500 14.39112 36220 ft 427 kts 285°
2026-04-14 19:57 49.84146 14.30282 36219 ft 427 kts 285°
2026-04-14 19:57 49.85796 14.21452 36223 ft 427 kts 285°
2026-04-14 19:58 49.87442 14.12606 36222 ft 428 kts 286°
2026-04-14 19:58 49.89087 14.03746 36224 ft 428 kts 286°
2026-04-14 19:59 49.90719 13.94876 36222 ft 427 kts 286°
2026-04-14 19:59 49.92331 13.86008 36228 ft 427 kts 285°